Weather History for Troy, MI

Change the Weather History Date:

Tuesday, January 3, 2012

  Actual Average (KDET) Record (KDET)
Temperature  
Mean Temperature 21 °F -  
Max Temperature 23 °F 30 °F 59 °F (1950)
Min Temperature 19 °F 20 °F -2 °F (1979)
Degree Days  
Heating Degree Days 44    
Moisture  
Dew Point 7 °F    
Average Humidity 55    
Maximum Humidity 80    
Minimum Humidity 46    
Precipitation  
Precipitation 0.00 in - - ()
Sea Level Pressure  
Sea Level Pressure 30.23 in    
Wind  
Wind Speed 11 mph (NW)    
Max Wind Speed 20 mph    
Max Gust Speed 26 mph    
Visibility 9 miles    
Events Snow    
Averages and records for this station are not official NWS values.
T = Trace of Precipitation, MM = Missing Value Source: NWS Daily Summary

Daily Weather History Graph

Daily Weather History Graph

Search for Another Location

Airport:

Trip Planner

Search our weather history database for the weather conditions in past years. The results will help you decide how hot, cold, wet, or windy it might be!

Date:

Astronomy

Jan. 03, 2012 Rise Set
Actual Time 8:02 AM EST 5:11 PM EST
Civil Twilight 7:30 AM EST 5:43 PM EST
Nautical Twilight 6:55 AM EST 6:18 PM EST
Astronomical Twilight 6:21 AM EST 6:53 PM EST
Moon 1:00 PM EST (1/3) 2:50 AM EST (1/3)
Length of Visible Light 10h 12m
Length of Day
9h 08m
Waxing Gibbous, 72% of the Moon is Illuminated
Jan 3
Waxing Gibbous
Jan 9
Full
Jan 16
Last Quarter
Jan 23
New
Jan 30
First Quarter

Hourly Weather History & Observations

Time (EST) Temp. Windchill Dew Point Humidity Pressure Visibility Wind Dir Wind Speed Gust Speed Precip Events Conditions
12:14 AM 21.2 °F 7.8 °F 6.8 °F 54% 30.14 in 10.0 mi WNW 15.0 mph 25.3 mph N/A   Mostly Cloudy
12:35 AM 23.0 °F 9.2 °F 6.8 °F 50% 30.15 in 10.0 mi WNW 17.3 mph 25.3 mph N/A   Overcast
12:55 AM 21.2 °F 7.3 °F 5.0 °F 50% 30.15 in 10.0 mi NW 16.1 mph 26.5 mph N/A   Scattered Clouds
1:14 AM 21.2 °F 8.3 °F 5.0 °F 50% 30.16 in 10.0 mi NW 13.8 mph 21.9 mph N/A   Mostly Cloudy
1:35 AM 21.2 °F 9.5 °F 5.0 °F 50% 30.16 in 10.0 mi NW 11.5 mph 26.5 mph N/A   Scattered Clouds
1:54 AM 21.2 °F 8.9 °F 5.0 °F 50% 30.17 in 10.0 mi NW 12.7 mph 19.6 mph N/A   Mostly Cloudy
2:14 AM 21.2 °F 9.5 °F 3.2 °F 46% 30.17 in 10.0 mi WNW 11.5 mph 19.6 mph N/A   Mostly Cloudy
2:35 AM 21.2 °F 10.1 °F 3.2 °F 46% 30.18 in 10.0 mi WNW 10.4 mph 19.6 mph N/A   Scattered Clouds
2:54 AM 19.4 °F 7.2 °F 3.2 °F 49% 30.19 in 10.0 mi NW 11.5 mph - N/A   Clear
3:14 AM 19.4 °F 6.0 °F 3.2 °F 49% 30.19 in 10.0 mi NW 13.8 mph 20.7 mph N/A   Clear
3:35 AM 19.4 °F 7.2 °F 3.2 °F 49% 30.19 in 10.0 mi NW 11.5 mph 18.4 mph N/A   Clear
4:15 AM 19.4 °F 11.5 °F 5.0 °F 54% 30.20 in 10.0 mi NW 5.8 mph - N/A   Scattered Clouds
4:35 AM 19.4 °F 8.6 °F 5.0 °F 54% 30.19 in 10.0 mi NW 9.2 mph 17.3 mph N/A   Mostly Cloudy
5:15 AM 21.2 °F 11.7 °F 5.0 °F 50% 30.19 in 10.0 mi WNW 8.1 mph - N/A   Overcast
5:34 AM 21.2 °F 12.6 °F 10.4 °F 63% 30.20 in 7.0 mi NW 6.9 mph - N/A Snow Light Snow
6:15 AM 21.2 °F 6.0 °F 6.8 °F 54% 30.19 in 10.0 mi WNW 19.6 mph 26.5 mph N/A   Overcast
6:34 AM 21.2 °F 8.9 °F 8.6 °F 58% 30.20 in 7.0 mi NW 12.7 mph - N/A Snow Light Snow
6:55 AM 21.2 °F 6.0 °F 8.6 °F 58% 30.20 in 10.0 mi WNW 19.6 mph 26.5 mph N/A   Overcast
7:14 AM 21.2 °F 9.5 °F 8.6 °F 58% 30.20 in 10.0 mi WNW 11.5 mph 20.7 mph N/A   Overcast
7:34 AM 21.2 °F 10.1 °F 8.6 °F 58% 30.20 in 10.0 mi WNW 10.4 mph 26.5 mph N/A   Overcast
7:53 AM 21.2 °F 7.8 °F 8.6 °F 58% 30.21 in 10.0 mi WNW 15.0 mph 26.5 mph N/A   Overcast
8:14 AM 19.4 °F 6.0 °F 6.8 °F 58% 30.22 in 10.0 mi NW 13.8 mph 19.6 mph N/A   Scattered Clouds
8:35 AM 19.4 °F 8.6 °F 6.8 °F 58% 30.22 in 10.0 mi WNW 9.2 mph - N/A   Mostly Cloudy
8:55 AM 21.2 °F 7.3 °F 8.6 °F 58% 30.23 in 10.0 mi NW 16.1 mph 20.7 mph N/A   Overcast
9:14 AM 21.2 °F 6.8 °F 8.6 °F 58% 30.23 in 10.0 mi NW 17.3 mph 23.0 mph N/A   Overcast
9:35 AM 21.2 °F 12.6 °F 8.6 °F 58% 30.24 in 7.0 mi NW 6.9 mph 20.7 mph N/A Snow Light Snow
9:54 AM 21.2 °F 9.5 °F 8.6 °F 58% 30.25 in 7.0 mi NW 11.5 mph - N/A   Overcast
10:14 AM 21.2 °F 8.9 °F 10.4 °F 63% 30.25 in 5.0 mi NNW 12.7 mph 20.7 mph N/A Snow Light Snow
10:35 AM 19.4 °F 6.6 °F 14.0 °F 80% 30.27 in 0.8 mi NW 12.7 mph 18.4 mph N/A Snow Light Snow
10:54 AM 19.4 °F 7.2 °F 14.0 °F 80% 30.27 in 2.0 mi NNW 11.5 mph 17.3 mph N/A Snow Light Snow
11:15 AM 21.2 °F 7.8 °F 8.6 °F 58% 30.27 in 10.0 mi NNW 15.0 mph 24.2 mph N/A   Mostly Cloudy
11:35 AM 21.2 °F 8.9 °F 10.4 °F 63% 30.28 in 7.0 mi North 12.7 mph 17.3 mph N/A   Mostly Cloudy
11:54 AM 21.2 °F 8.9 °F 8.6 °F 58% 30.28 in 10.0 mi NNW 12.7 mph 18.4 mph N/A   Mostly Cloudy
12:35 PM 21.2 °F 9.5 °F 6.8 °F 54% 30.28 in 10.0 mi NNW 11.5 mph 18.4 mph N/A   Mostly Cloudy
12:54 PM 21.2 °F 8.3 °F 5.0 °F 50% 30.27 in 10.0 mi North 13.8 mph 19.6 mph N/A   Mostly Cloudy
1:15 PM 21.2 °F 10.1 °F 5.0 °F 50% 30.27 in 10.0 mi NNW 10.4 mph 23.0 mph N/A   Mostly Cloudy
1:55 PM 21.2 °F 10.9 °F 5.0 °F 50% 30.26 in 10.0 mi NNW 9.2 mph 16.1 mph N/A   Clear
2:15 PM 21.2 °F 8.9 °F 3.2 °F 46% 30.26 in 10.0 mi NNW 12.7 mph 17.3 mph N/A   Clear
2:35 PM 21.2 °F 10.1 °F 5.0 °F 50% 30.26 in 7.0 mi NNW 10.4 mph - N/A   Clear
2:55 PM 21.2 °F 11.7 °F 3.2 °F 46% 30.26 in 10.0 mi NNW 8.1 mph - N/A   Scattered Clouds
3:14 PM 21.2 °F 10.9 °F 5.0 °F 50% 30.27 in 10.0 mi NW 9.2 mph - N/A   Clear
3:55 PM 21.2 °F 16.4 °F 5.0 °F 50% 30.27 in 10.0 mi NNW 3.5 mph - N/A   Scattered Clouds
4:14 PM 21.2 °F 13.6 °F 5.0 °F 50% 30.27 in 10.0 mi NW 5.8 mph - N/A   Scattered Clouds
4:35 PM 23.0 °F 18.4 °F 6.8 °F 50% 30.27 in 10.0 mi WNW 3.5 mph - N/A   Mostly Cloudy
4:54 PM 21.2 °F 13.6 °F 6.8 °F 54% 30.27 in 10.0 mi North 5.8 mph - N/A   Mostly Cloudy
5:15 PM 21.2 °F - 5.0 °F 50% 30.28 in 10.0 mi Calm Calm - N/A   Scattered Clouds
5:35 PM 21.2 °F - 5.0 °F 50% 30.27 in 10.0 mi Calm Calm - N/A   Clear
5:55 PM 21.2 °F - 6.8 °F 54% 30.27 in 10.0 mi Calm Calm - N/A   Clear
6:15 PM 21.2 °F - 6.8 °F 54% 30.27 in 10.0 mi Calm Calm - N/A   Clear
6:34 PM 21.2 °F - 6.8 °F 54% 30.26 in 10.0 mi Calm Calm - N/A   Clear
6:55 PM 21.2 °F - 6.8 °F 54% 30.27 in 10.0 mi Calm Calm - N/A   Clear
7:15 PM 21.2 °F - 8.6 °F 58% 30.25 in 10.0 mi Calm Calm - N/A   Clear
7:34 PM 21.2 °F 16.4 °F 6.8 °F 54% 30.25 in 10.0 mi SSE 3.5 mph - N/A   Clear
7:55 PM 21.2 °F - 6.8 °F 54% 30.25 in 10.0 mi Calm Calm - N/A   Clear
8:35 PM 21.2 °F 14.9 °F 8.6 °F 58% 30.21 in 10.0 mi SSE 4.6 mph - N/A   Overcast
8:55 PM 21.2 °F 16.4 °F 10.4 °F 63% 30.20 in 10.0 mi SSE 3.5 mph - N/A   Scattered Clouds
9:14 PM 23.0 °F 17.0 °F 10.4 °F 59% 30.20 in 10.0 mi South 4.6 mph - N/A   Mostly Cloudy
9:35 PM 23.0 °F 18.4 °F 10.4 °F 59% 30.20 in 10.0 mi SSW 3.5 mph - N/A   Mostly Cloudy
9:55 PM 23.0 °F 13.1 °F 10.4 °F 59% 30.19 in 10.0 mi South 9.2 mph - N/A   Mostly Cloudy
10:14 PM 23.0 °F 13.9 °F 8.6 °F 54% 30.19 in 10.0 mi SSW 8.1 mph - N/A   Mostly Cloudy
10:35 PM 23.0 °F 13.1 °F 8.6 °F 54% 30.19 in 10.0 mi SSW 9.2 mph - N/A   Overcast
10:55 PM 23.0 °F 15.8 °F 10.4 °F 59% 30.19 in 10.0 mi SSW 5.8 mph - N/A   Overcast
11:14 PM 23.0 °F 14.7 °F 10.4 °F 59% 30.18 in 10.0 mi SSW 6.9 mph - N/A   Mostly Cloudy
11:35 PM 23.0 °F 13.9 °F 12.2 °F 63% 30.18 in 10.0 mi SSW 8.1 mph - N/A   Scattered Clouds
11:54 PM 23.0 °F 14.7 °F 14.0 °F 68% 30.18 in 10.0 mi SSW 6.9 mph - N/A   Clear